Torna al catalogo

SERVIS 2

AttivoScienzaSSO
NORAD 36588·PAYLOAD·🇯🇵 Japan

Lanciato Jun 2, 2010 da Plesetsk Cosmodrome

Loading…

Prossimi Passaggi (prossime 24 ore)

TLE

AggiornatoSource: Space-Track

Epoca: Sep 14, 2026, 10:58 UTC

1 36588U 10023A   26257.45761956 -.00000039  00000-0  15084-4 0  9996
2 36588 100.4287  83.8702 0017941  71.8517 316.0161 13.16058124782515

Traccia SERVIS 2 in tempo reale con AllMySat

Download on the App Store